Regional Weather Roundup
Issued by NWS Sioux Falls, SD

Home | Current Version | Previous Version | Text Only | Print | Product List | Glossary On
Versions: 1 2 3 4 5 6 7 8 9 10 11 12 13 14 15 16 17 18 19 20 21 22 23 24 25 26 27 28 29 30 31 32 33 34 35 36 37 38 39 40 41 42 43 44 45 46 47 48 49 50
000
ASUS43 KFSD 291602
RWRFSD

WEATHER ROUNDUP FOR SE SOUTH DAKOTA/SW MINNESOTA/NW IOWA
NATIONAL WEATHER SERVICE SIOUX FALLS SD
1100 AM CDT SUN MAY 29 2016

NOTE: "FAIR" INDICATES FEW OR NO CLOUDS BELOW 12,000 FEET WITH NO
SIGNIFICANT WEATHER AND OR OBSTRUCTIONS TO VISIBILITY.


SDZ038>040-050-052>070-291700-
SOUTHEAST SOUTH DAKOTA

CITY           SKY/WX    TMP DP  RH WIND       PRES   REMARKS
BROOKINGS      SUNNY     68  57  68 W12       30.04R
CHAMBERLAIN    NOT AVBL
HURON          SUNNY     71  57  61 NW8       30.04S
MADISON        FAIR      66  63  88 W14       30.06R
MITCHELL       SUNNY     71  58  63 NW7       30.07R
SIOUX FALLS    MOSUNNY   72  60  66 NW8       30.05R
WINNER         FAIR      71  55  56 NE5       30.09F
YANKTON        SUNNY     70  61  73 W9        30.06R
$$

MNZ071-072-080-081-089-090-097-098-291700-
SOUTHWEST MINNESOTA

CITY           SKY/WX    TMP DP  RH WIND       PRES   REMARKS
FAIRMONT       SUNNY     72  59  64 W16G22    30.02R
JACKSON        SUNNY     72  55  56 W18       30.04R
LUVERNE        SUNNY     70  57  64 NW8G17    30.05S
MARSHALL       SUNNY     72  57  59 NW15G22   30.00
MONTEVIDEO     SUNNY     72  61  68 NW12      30.00R
PIPESTONE      SUNNY     70  55  60 NW10G17   30.04S
REDWOOD FALLS  SUNNY     71  59  65 W14       29.99R
TRACY          SUNNY     72  60  65 W9        30.01S
WINDOM         SUNNY     73  57  56 CALM      30.02R
WORTHINGTON    MOSUNNY   70  59  68 W15       30.05R
$$

IAZ001>003-012>014-020>022-031-032-NEZ013-014-SDZ071-291700-
NORTHWEST IOWA

CITY           SKY/WX    TMP DP  RH WIND       PRES   REMARKS
ESTHERVILLE    MOSUNNY   71  62  73 W20       30.04R
SIOUX CITY     SUNNY     75  59  57 W7        30.07S
SPENCER        SUNNY     72  60  66 W14       30.06R
STORM LAKE     SUNNY     72  59  64 W13       30.08S
$$

ABBREVIATIONS USED IN REMARKS
   TC - TEMPERATURE IN CELSIUS
  WCI - WIND CHILL INDEX
   HX - HEAT INDEX
  VSB - VISIBILITY





USA.gov is the U.S. government's official web portal to all federal, state and local government web resources and services.